Weather History for KORD - July, 2013

Change the Weather History Date:

Saturday, July 20, 2013

  Actual Average Record
Temperature  
Mean Temperature 80 °F 74 °F  
Max Temperature 89 °F 84 °F 101 °F (1980)
Min Temperature 71 °F 64 °F 53 °F (1970)
Degree Days  
Heating Degree Days 0 0  
Month to date heating degree days 1 0  
Since 1 June heating degree days 44 48  
Since 1 July heating degree days 1 0  
Cooling Degree Days 15 9  
Month to date cooling degree days 222 179  
Year to date cooling degree days 462 398  
Since 1 June cooling degree days 378 344  
Growing Degree Days 30 (Base 50)    
Moisture  
Dew Point 65 °F    
Average Humidity 65    
Maximum Humidity 93    
Minimum Humidity 36    
Precipitation  
Precipitation 0.06 in 0.12 in 3.03 in (1978)
Month to date precipitation 1.25 2.23  
Year to date precipitation 29.71 18.76  
Snow  
Snow 0.00 in 0.00 in 0.00 in ()
Month to date snowfall 0.0 0.0  
Since 1 June snowfall 0.0 0.0  
Since 1 July snowfall 0.0 0.0  
Snow Depth 0.00 in    
Sea Level Pressure  
Sea Level Pressure 29.86 in    
Wind  
Wind Speed 8 mph (North)    
Max Wind Speed 16 mph    
Max Gust Speed 23 mph    
Visibility 10 miles    
Events Rain , Thunderstorm    
T = Trace of Precipitation, MM = Missing Value Source: NWS Daily Summary

Daily Weather History Graph

Daily Weather History Graph

Search for Another Location

Airport or City:

Trip Planner

Search our weather history database for the weather conditions in past years. The results will help you decide how hot, cold, wet, or windy it might be!

Date:

Astronomy

Jul. 20, 2013 Rise Set
Actual Time 5:33 AM CDT 8:21 PM CDT
Civil Twilight 5:01 AM CDT 8:54 PM CDT
Nautical Twilight 4:19 AM CDT 9:35 PM CDT
Astronomical Twilight 3:32 AM CDT 10:22 PM CDT
Moon 6:24 PM CDT (7/20) 3:13 AM CDT (7/20)
Length of Visible Light 15h 53m
Length of Day
14h 47m
Waxing Gibbous, 94% of the Moon is Illuminated
Jul 20
Waxing Gibbous
Jul 22
Full
Jul 29
Last Quarter
Aug 6
New
Aug 14
First Quarter

Hourly Weather History & Observations

Time (CDT) Temp. Heat Index Dew Point Humidity Pressure Visibility Wind Dir Wind Speed Gust Speed Precip Events Conditions
12:51 AM 73.9 °F - 71.1 °F 91% 29.80 in 10.0 mi West 5.8 mph - N/A   Mostly Cloudy
1:51 AM 73.9 °F - 70.0 °F 87% 29.79 in 10.0 mi WNW 5.8 mph - N/A   Scattered Clouds
2:51 AM 73.9 °F - 69.1 °F 85% 29.79 in 10.0 mi NW 5.8 mph - N/A   Scattered Clouds
3:51 AM 73.0 °F - 66.9 °F 81% 29.79 in 10.0 mi NW 8.1 mph - N/A   Partly Cloudy
4:51 AM 72.0 °F - 66.0 °F 81% 29.81 in 10.0 mi NW 8.1 mph - N/A   Partly Cloudy
5:51 AM 71.1 °F - 64.9 °F 81% 29.81 in 10.0 mi NNW 8.1 mph - N/A   Scattered Clouds
6:51 AM 72.0 °F - 63.0 °F 73% 29.84 in 10.0 mi NNW 10.4 mph - N/A   Scattered Clouds
7:51 AM 73.9 °F - 64.0 °F 71% 29.84 in 10.0 mi North 8.1 mph - N/A   Partly Cloudy
8:51 AM 78.1 °F - 64.9 °F 64% 29.86 in 10.0 mi NNE 5.8 mph - N/A   Partly Cloudy
9:51 AM 80.1 °F 81.9 °F 64.9 °F 60% 29.87 in 10.0 mi NNE 4.6 mph - N/A   Scattered Clouds
10:51 AM 82.0 °F 83.1 °F 63.0 °F 52% 29.88 in 10.0 mi ENE 5.8 mph - N/A   Scattered Clouds
11:51 AM 84.9 °F 85.0 °F 61.0 °F 44% 29.88 in 10.0 mi NE 3.5 mph - N/A   Scattered Clouds
12:51 PM 84.0 °F 84.4 °F 61.0 °F 46% 29.88 in 10.0 mi Variable 3.5 mph - N/A   Scattered Clouds
1:51 PM 87.1 °F 86.7 °F 60.1 °F 40% 29.86 in 10.0 mi North 5.8 mph - N/A   Scattered Clouds
2:51 PM 87.1 °F 86.1 °F 57.9 °F 37% 29.86 in 10.0 mi WNW 10.4 mph - N/A   Scattered Clouds
3:51 PM 88.0 °F 86.7 °F 57.0 °F 35% 29.85 in 10.0 mi Variable 6.9 mph - N/A   Scattered Clouds
4:51 PM 88.0 °F 87.1 °F 59.0 °F 37% 29.83 in 10.0 mi WNW 6.9 mph - N/A   Scattered Clouds
5:51 PM 86.0 °F 86.8 °F 63.0 °F 46% 29.83 in 10.0 mi East 9.2 mph - N/A   Scattered Clouds
6:51 PM 81.0 °F 81.7 °F 61.0 °F 50% 29.87 in 10.0 mi ENE 12.7 mph - N/A   Scattered Clouds
7:51 PM 75.9 °F - 70.0 °F 82% 29.88 in 10.0 mi NE 12.7 mph - N/A   Mostly Cloudy
8:51 PM 73.0 °F - 69.1 °F 87% 29.91 in 10.0 mi NE 11.5 mph - 0.02 in Rain , Thunderstorm Light Thunderstorms and Rain
9:28 PM 71.6 °F - 69.8 °F 94% 29.96 in 10.0 mi North 3.5 mph - 0.04 in Rain Light Rain
9:51 PM 72.0 °F - 68.0 °F 87% 29.96 in 10.0 mi North 5.8 mph - 0.04 in   Overcast
10:51 PM 71.1 °F - 66.0 °F 84% 29.92 in 10.0 mi NE 9.2 mph - 0.00 in   Overcast
11:51 PM 71.1 °F - 66.0 °F 84% 29.93 in 10.0 mi NNE 4.6 mph - N/A   Mostly Cloudy